SCP
0 0 0 0 0 0 0 0 0 0 1 1 1 0 0 0 0 0 0 0 0 0 0 0 0 0 0 0 0 0 0 0 0 0 0 0 0 0 0 0 0 0 0 0
0 0 0 0 0 0 0 0 0 0 1 1 1 0 0 0 0 0 0 0 0 0 0 0 0 0 0 0 0 0 0 0 0 0 0 0 0 0 0 0 0 0 0 0
0 0 0 0 0 0 0 0 0 0 0 0 0 0 0 0 0 0 0 0 0 0 0 0 0 0 0 0 0 0 0 0 0 0 0 0 0 0 0 0 0 0 0 0
0 0 0 0 0 0 0 0 0 0 0 0 0 0 0 0 0 0 0 0 0 0 0 0 0 0 0 0 0 0 0 0 0 0 0 0 0 0 0 0 0 0 0 0
0 0 0 0 0 0 0 0 0 0 0 0 0 0 0 0 0 0 0 0 0 0 0 0 0 0 0 0 0 0 0 0 0 0 0 0 0 0 0 0 0 0 0 0
0 0 0 0 0 0 0 0 0 0 0 0 0 0 0 0 0 0 0 0 0 0 0 0 0 0 0 0 0 0 0 0 0 0 0 0 0 0 0 0 0 0 0 0
0 0 0 0 0 0 0 0 0 0 0 0 0 0 0 0 0 0 0 0 0 0 0 0 0 0 0 -0 0 0 0 0 0 0 0 0 0 0 0 0 0 0 0 0
0 0 0 0 0 0 0 0 0 0 0 0 0 0 0 0 0 0 0 0 0 0 0 0 0 0 -0 -0 0 0 0 0 0 0 0 0 0 0 0 0 0 0 0 0
1 0 0 0 0 0 0 0 0 0 0 0 0 0 0 0 0 0 0 0 0 0 0 0 0 -0 -0 -0 0 0 0 0 0 0 0 0 0 0 0 0 0 0 0 0
0 0 0 0 0 0 0 0 0 0 0 0 0 0 0 0 0 0 0 0 0 0 0 0 0 -0 -0 0 0 0 0 0 0 0 0 0 0 0 0 0 0 0 0 0
0 0 0 0 0 0 0 0 0 0 0 0 0 0 0 0 0 0 0 0 0 0 0 0 -0 -0 -0 0 0 0 0 0 0 0 0 0 0 0 0 0 0 0 0 0
0 0 0 0 0 0 0 0 0 0 0 0 0 0 0 0 0 0 0 0 0 0 0 0 -0 -0 0 0 0 0 0 0 0 0 0 0 0 0 0 0 0 0 0 0
0 0 0 0 0 0 0 0 0 0 0 0 0 0 0 0 0 0 0 0 0 0 0 0 -0 -0 0 0 0 0 0 0 0 0 0 0 0 0 0 0 0 0 0 0
0 0 0 0 0 0 0 0 0 0 0 0 0 0 0 0 0 0 0 0 0 0 0 0 -0 -0 -0 0 0 0 0 0 0 0 0 0 0 0 0 0 0 0 0 0
0 0 0 0 0 0 0 0 0 0 0 0 0 0 0 0 0 0 0 0 0 0 0 0 -0 -0 -0 0 0 0 0 0 0 0 0 0 0 0 0 0 0 0 0 0
0 0 0 0 0 0 0 0 0 0 0 0 0 0 0 0 0 0 0 0 0 0 0 0 -0 -0 -0 0 0 0 0 0 0 0 0 0 0 0 0 0 0 0 0 0
0 0 0 0 0 0 0 0 0 0 0 0 0 0 0 0 0 0 0 0 0 0 0 -0 -0 -0 -0 0 0 0 0 0 0 0 0 0 0 0 0 0 0 0 0 0
0 0 0 0 0 0 0 0 0 0 0 0 0 0 0 0 0 0 0 0 0 0 0 -0 -0 -0 -0 -0 -0 -0 0 0 0 0 0 0 0 0 0 0 0 0 0 0
0 0 0 0 0 0 0 0 0 0 0 0 0 0 0 0 0 0 0 0 0 0 0 -0 0 0 0 0 0 0 0 0 0 0 0 0 0 0 0 0 0 0 0 0
0 0 0 0 0 0 0 0 0 0 0 0 0 0 0 0 0 0 0 0 0 0 0 -0 0 0 0 0 0 0 0 0 0 0 0 0 0 0 0 0 0 0 0 0
0 0 0 0 0 0 0 0 0 0 0 0 0 0 0 0 0 0 0 0 0 0 0 -0 0 0 0 0 0 0 0 0 0 0 0 0 0 0 0 0 0 0 0 0
0 0 0 0 0 0 0 0 0 0 0 0 0 0 0 0 0 0 0 0 0 0 0 0 0 0 0 0 0 0 0 0 0 0 0 0 0 0 0 0 0 0 0 0
0 0 0 0 0 0 0 0 0 0 0 0 0 0 0 0 0 0 0 0 0 0 0 0 0 0 0 0 0 0 0 0 0 0 0 0 0 0 0 0 0 0 0 0
0 0 0 0 0 0 0 0 0 0 0 0 0 0 0 0 0 0 0 0 0 0 0 0 0 0 0 0 0 0 0 0 0 0 0 0 0 0 0 0 0 0 0 0
0 0 0 0 0 0 0 0 0 0 0 0 0 0 0 0 0 0 0 0 0 0 0 0 0 0 0 0 0 0 0 0 0 0 0 0 0 0 0 0 0 0 0 0
0 0 0 0 0 0 0 0 0 0 0 0 0 0 0 0 0 0 0 0 0 0 0 0 0 0 0 0 0 0 0 0 0 0 0 0 0 0 0 0 0 0 0 0
0 0 0 0 0 0 0 0 0 0 0 0 0 0 0 0 0 0 0 0 0 0 0 0 0 0 0 0 0 0 0 0 0 0 0 0 0 0 0 0 0 0 0 0
Wind_Speed
22 23 24 16 12 17 20 20 18 10 16 17 15 16 17 15 13 11 8 6 7 7 6 6 8 8 9 9 8 8 8 8 7 7 7 7 6 5 5 6 8 7 6 6
23 25 25 22 12 16 17 19 17 5 16 15 19 16 15 13 11 9 7 8 8 6 6 7 8 9 9 8 7 7 8 8 8 6 7 6 5 5 6 6 7 6 6 6
21 24 24 22 14 17 15 12 9 8 14 20 20 17 15 12 9 8 9 9 7 7 7 7 7 7 7 7 7 6 7 8 7 6 6 6 7 7 7 6 7 6 5 4
18 23 28 15 8 12 1 11 10 20 22 20 18 16 13 10 11 11 11 9 8 7 6 6 5 5 5 7 7 6 6 6 6 6 7 6 6 7 7 6 6 5 5 4
13 22 25 10 3 4 9 13 17 22 21 21 20 18 14 13 13 12 11 9 7 5 4 4 3 4 6 7 5 6 7 6 7 7 8 8 7 7 6 6 6 6 5 5
12 17 18 9 5 5 13 10 15 19 20 19 17 11 11 11 12 11 9 7 5 3 3 3 3 4 7 6 5 6 7 6 5 5 6 8 5 5 5 5 6 7 6 5
16 12 3 1 9 10 8 9 16 17 17 14 11 12 13 13 12 10 8 6 3 3 3 2 2 4 6 6 6 6 7 7 6 5 5 5 4 4 4 4 6 7 7 6
14 7 3 7 12 9 8 16 17 18 19 19 17 16 14 13 11 9 8 5 3 2 2 1 1 4 6 6 6 7 7 7 7 6 6 5 4 4 3 3 5 6 6 8
1 4 8 1 8 12 16 18 19 19 19 17 15 14 13 11 9 8 7 4 2 3 2 1 1 3 6 6 6 7 7 7 6 7 4 3 4 4 4 3 6 8 9 9
8 11 14 13 12 12 15 18 19 18 17 16 15 13 12 10 8 8 6 4 3 2 1 1 3 4 4 4 6 7 7 7 7 5 5 6 4 4 5 7 9 9 10 10
12 14 16 14 14 16 17 18 18 17 17 16 13 12 11 9 9 7 6 4 3 3 3 3 3 3 5 6 5 6 6 6 10 7 8 6 6 8 9 10 9 8 9 10
7 11 14 17 17 19 18 17 17 17 16 14 12 10 10 10 8 7 6 4 3 2 3 4 4 5 5 5 6 7 7 7 8 6 6 7 7 8 13 10 9 7 6 8
7 9 17 19 19 18 17 17 17 16 15 13 11 10 11 9 8 7 5 4 2 2 3 3 4 6 6 5 6 7 8 7 8 8 8 8 8 7 6 4 3 2 5 11
9 14 18 18 17 16 17 17 16 16 14 12 10 10 10 9 8 7 4 3 1 1 2 4 7 7 7 7 6 7 8 9 9 7 8 9 10 11 10 9 8 5 7 15
11 13 13 15 16 17 15 15 14 13 12 11 10 10 10 10 8 6 3 1 0 1 4 7 7 7 7 8 5 8 8 7 7 8 8 10 11 11 11 11 10 9 9 12
12 12 13 15 15 14 12 12 12 11 10 10 10 10 10 9 6 5 3 1 2 5 7 7 7 8 8 8 6 6 6 7 8 8 10 10 11 11 10 10 10 9 9 10
11 12 12 13 12 10 10 10 11 10 10 10 10 10 9 7 5 4 4 4 4 6 7 7 8 9 9 9 8 7 8 8 9 10 10 11 12 11 11 10 9 8 8 10
9 10 10 10 9 9 9 10 10 10 9 10 10 9 8 6 5 4 5 6 6 7 7 7 7 7 7 7 6 6 7 7 8 9 10 11 12 11 10 10 10 10 8 10
11 10 9 8 8 7 7 8 10 10 10 10 10 8 7 5 4 4 5 6 7 7 7 4 2 5 7 8 5 6 8 8 8 9 10 12 12 11 10 9 9 9 9 9
8 8 8 7 6 6 7 8 9 9 8 8 8 8 6 5 5 4 4 7 7 7 5 3 3 5 6 7 7 8 9 9 10 9 10 10 11 10 9 9 9 9 9 9
7 6 6 6 6 6 7 9 9 8 8 7 7 8 7 6 5 5 6 7 6 6 4 2 4 6 7 7 6 9 9 9 10 10 9 9 9 9 9 8 8 9 9 9
6 5 5 5 5 6 7 8 9 9 8 7 7 8 8 7 7 5 7 7 6 2 1 6 7 8 11 7 8 9 9 9 9 9 9 9 9 8 8 8 7 7 8 8
6 5 5 5 6 6 7 8 9 8 7 7 8 8 9 7 5 6 7 7 8 7 6 7 6 10 13 5 8 8 9 9 9 9 9 9 9 9 8 9 7 7 7 7
7 7 8 8 8 8 8 8 8 6 6 7 8 9 8 7 5 8 10 11 10 9 7 4 6 9 5 7 8 8 9 9 9 9 9 9 9 9 9 9 8 8 8 10
9 10 10 10 9 8 8 8 7 6 7 6 9 10 9 6 8 10 10 11 10 9 6 2 3 4 7 9 9 9 9 9 9 8 9 9 9 9 9 10 10 10 10 10
8 8 8 8 7 7 7 7 6 6 7 7 8 8 6 7 12 10 9 11 11 8 7 6 6 6 8 8 8 8 8 8 8 9 9 9 10 10 9 10 12 10 10 11
7 7 6 7 7 7 6 6 6 7 7 8 9 8 7 10 10 10 11 10 8 7 6 7 7 8 8 8 8 8 7 8 8 8 8 8 9 9 10 12 10 10 9 11
Wind_Direction
269 271 270 263 243 260 269 264 255 231 144 158 144 136 130 129 129 128 142 144 109 77 40 12 16 11 0 4 3 345 331 333 333 327 324 327 333 337 345 343 338 339 350 1
264 265 266 266 238 233 253 268 279 121 131 143 128 128 132 137 143 148 136 104 83 57 31 30 18 6 1 354 341 334 330 326 322 332 333 337 336 345 346 338 334 337 348 359
250 257 262 255 254 252 240 219 228 150 136 133 132 137 138 139 139 123 98 81 62 46 42 36 25 13 349 329 321 316 309 309 319 336 335 346 344 343 338 331 330 329 340 356
250 246 247 250 261 274 222 95 97 117 134 132 129 121 111 105 96 84 76 65 56 39 28 35 28 2 322 306 303 313 329 346 350 350 347 342 331 334 330 327 325 326 332 350
250 245 240 203 182 215 132 122 122 124 126 123 119 110 95 83 83 82 79 71 59 33 20 46 18 340 310 307 337 6 11 3 359 352 336 321 329 333 329 329 328 330 336 351
244 250 241 184 140 93 111 130 134 130 129 132 139 138 121 107 98 93 87 73 48 10 34 58 10 331 320 327 3 360 352 344 330 321 311 310 330 332 331 326 332 332 338 6
234 243 300 144 141 121 137 152 135 128 124 117 98 99 113 109 101 98 97 81 25 24 63 60 346 322 320 326 346 337 329 316 302 298 294 305 325 312 318 338 342 339 357 10
229 202 184 223 163 156 138 131 129 121 109 105 105 109 115 113 111 109 106 85 62 87 111 177 267 299 304 321 330 322 312 304 302 295 294 308 301 301 329 5 357 356 2 0
298 124 138 106 72 95 115 120 118 114 114 117 118 119 114 108 103 97 92 92 113 125 132 175 270 291 311 327 328 320 310 307 304 302 296 312 315 333 349 14 13 4 4 356
97 117 118 108 104 105 108 109 111 114 118 121 118 114 108 103 97 95 100 122 142 124 76 29 330 309 311 339 339 336 339 342 326 324 8 345 333 1 12 26 25 16 6 354
115 120 114 116 117 115 111 110 113 114 111 108 107 105 105 101 98 107 124 127 103 54 16 351 323 347 14 7 345 345 340 355 332 356 20 347 15 44 59 65 64 41 16 358
124 136 128 126 123 121 118 115 110 105 101 99 98 97 98 101 111 128 133 132 107 51 4 348 22 35 29 11 2 360 352 6 341 8 9 360 15 69 77 105 105 84 39 12
127 127 124 124 124 122 117 112 107 102 96 92 88 92 103 114 128 137 136 124 94 24 0 355 35 33 22 15 28 24 9 9 347 10 7 11 11 33 76 101 134 142 29 17
124 129 129 129 126 121 115 109 104 100 97 96 97 102 112 124 134 134 123 109 101 354 10 25 46 34 14 13 43 46 21 11 360 16 14 17 23 33 32 28 31 30 21 13
115 124 124 122 116 110 109 111 110 107 106 105 107 114 125 131 133 129 127 142 146 32 45 45 44 33 20 8 34 72 45 22 6 20 25 29 34 32 30 29 27 24 18 7
120 125 123 120 117 120 125 126 119 115 110 112 118 126 129 129 131 131 143 128 79 62 52 41 34 35 33 10 7 93 85 42 18 31 29 37 40 33 30 28 24 21 16 5
130 131 127 124 129 135 132 126 121 118 119 123 127 130 131 134 143 154 144 112 86 75 59 35 29 35 32 21 9 38 53 44 35 44 41 43 43 36 33 28 23 18 10 2
124 122 124 129 134 131 127 124 122 119 121 125 131 136 140 151 156 141 130 126 113 94 74 51 30 34 39 28 5 35 51 54 43 48 55 52 49 42 35 28 21 15 3 359
109 111 116 124 134 139 131 124 124 126 128 132 139 146 154 161 151 153 164 152 131 102 91 91 40 55 41 14 10 63 51 49 50 55 63 67 58 49 38 29 22 14 5 1
127 131 138 143 146 139 130 123 122 124 129 132 143 156 169 168 177 173 109 82 77 86 89 70 80 63 48 21 28 59 57 54 52 52 61 66 64 58 47 33 23 16 8 3
162 168 170 169 156 149 142 138 137 137 133 140 158 170 173 177 187 161 135 111 100 92 99 61 59 56 36 2 54 58 55 57 57 53 52 61 67 65 58 46 31 21 15 9
186 192 190 177 159 150 142 142 143 143 142 157 171 177 175 186 190 159 106 109 113 86 85 90 73 34 355 359 67 63 60 59 61 60 54 51 54 60 63 56 43 29 21 18
191 194 182 160 148 140 135 140 143 146 159 173 180 184 184 192 174 138 122 116 105 94 85 76 32 1 340 69 78 72 65 60 59 61 59 53 50 51 55 61 55 42 29 23
167 157 140 131 134 140 142 143 143 153 172 184 187 190 193 191 161 105 98 98 96 99 94 70 356 344 354 80 70 65 62 61 60 57 56 54 51 47 47 48 50 50 45 41
137 133 134 140 144 143 142 145 153 169 181 190 191 196 202 182 131 115 113 112 120 117 119 111 328 353 84 85 83 76 65 56 54 59 59 56 53 50 46 45 41 38 34 35
135 137 139 144 141 146 157 164 173 178 184 186 189 196 189 130 115 121 134 139 135 149 152 139 116 109 94 90 86 86 89 87 74 63 59 58 58 56 48 44 47 47 44 36
133 134 138 141 148 161 165 172 176 180 185 188 189 191 162 134 139 148 143 141 158 176 148 124 110 103 99 97 94 88 80 75 73 70 66 62 58 56 55 51 45 41 43 43